CZ-3C DEB, 39338

Orbit data source: Space-Track

CZ-3C DEB, 39338 is space debris in HEO originally from a launch on Sun, 31 Oct 2010 UTC launched from the Xichang Space Center, China (XSC). Debris objects in space refer to the collection of defunct objects orbiting the Earth. Examples of debris include non-operational satellites, rocket bodies, and fragments generated from explosions, collisions, or faulty payload assembly.

Loading next visibility...
Identifier
39338, 2010-057C
Orbit
HEO
Country
Flag of CNCN / PRC
Related business
Manufacturer
CALT
Mission
Spacecraft
Bus & Motor
Unknown
Mass
Unknown
Launch date (UTC)
2010-10-31 (15 years ago)
Launch vehicle
Unknown
Launch site
Xichang Space Center, China (XSC)
Object type
Payload
Rocket body
Debris
Shape & HBR
Unknown shape, 0.4 m
Radar Cross Section
Medium (>0.1 m² and <1 m²)

Expand to show TLE details & history
Last TLE update: 3 days ago

TLE from 3 days ago
0 CZ-3C DEB
1 39338U 10057C   26105.14131419 -.00000128  00000-0 -84253-3 0  9995
2 39338  20.2283  29.8506 7185099 299.3803   8.3708  2.25961530102976
Epoch: 2026-04-15T03:23Z
TLE epoch observation values (Epoch: 2026-04-15T03:23:29.546Z)
Latitude
0.00019°
Longitude
135.62679°
Altitude
2,399.588 km
Speed
8.635 km/s
True Right ascension
01h 59m 13s
True Declination
0° 00' 01"
Sunlit
Object was in daylight at epoch
Visualization orbit readout
Latitude
Unknown
Longitude
Unknown
Altitude
Unknown
Speed
Unknown
Apparent Right ascension
Unknown
Apparent Declination
Unknown
Sunlit
N/A
Visualization observer readout
Local Sidereal Time
01:34:02
Azimuth
Unknown
Elevation
Unknown
Doppler factor
Unknown
Orbital elements
Apogee altitude
35,785.883 km
Perigee altitude
528.285 km
Semi-major axis
24,535.221 km
Eccentricity
0.71851
Inclination
20.2283°
RAAN
29.8506°
Arg. of periapsis
299.3803°
True anomaly
61.67663°
Mean anomaly
8.3708°
Eccentric anomaly
27.1679°
Mean motion
0.56475 °/min
Orbital period
637.45 mins
BSTAR
-0.00084253
Loading maneuver chart data...
Computing Atmospheric mass density...
Loading historical data...
Loading historical data...
Loading historical data...
Loading historical data...
Loading historical data...
Loading historical data...
Loading historical data...

Documentation

Showing up to 5 results
|